Year,Month,Day,Hour,Minute,Value (Times are PST for temperature in C)
2012,06,08,00,00,10.60
2012,06,08,00,01,10.60
2012,06,08,00,02,10.60
2012,06,08,00,03,10.60
2012,06,08,00,04,10.50
2012,06,08,00,05,10.50
2012,06,08,00,06,10.50
2012,06,08,00,07,10.50
2012,06,08,00,08,10.50
2012,06,08,00,09,10.50
2012,06,08,00,10,10.50
2012,06,08,00,11,10.50
2012,06,08,00,12,10.50
2012,06,08,00,13,10.50
2012,06,08,00,14,10.40
2012,06,08,00,15,10.40
2012,06,08,00,16,10.40
2012,06,08,00,17,10.40
2012,06,08,00,18,10.40
2012,06,08,00,19,10.40
2012,06,08,00,20,10.40
2012,06,08,00,21,10.40
2012,06,08,00,22,10.30
2012,06,08,00,23,10.30
2012,06,08,00,24,10.30
2012,06,08,00,25,10.30
2012,06,08,00,26,10.30
2012,06,08,00,27,10.30
2012,06,08,00,28,10.30
2012,06,08,00,29,10.30
2012,06,08,00,30,10.20
2012,06,08,00,31,10.20
2012,06,08,00,32,10.20
2012,06,08,00,33,10.20
2012,06,08,00,34,10.20
2012,06,08,00,35,10.20
2012,06,08,00,36,10.20
2012,06,08,00,37,10.10
2012,06,08,00,38,10.10
2012,06,08,00,39,10.10
2012,06,08,00,40,10.10
2012,06,08,00,41,10.10
2012,06,08,00,42,10.10
2012,06,08,00,43,10.00
2012,06,08,00,44,10.00
2012,06,08,00,45,10.00
2012,06,08,00,46,10.00
2012,06,08,00,47,10.00
2012,06,08,00,48,10.00
2012,06,08,00,49,10.00
2012,06,08,00,50,9.90
2012,06,08,00,51,9.90
2012,06,08,00,52,9.90
2012,06,08,00,53,9.90
2012,06,08,00,54,9.90
2012,06,08,00,55,9.90
2012,06,08,00,56,9.90
2012,06,08,00,57,9.90
2012,06,08,00,58,10.00
2012,06,08,00,59,9.90
2012,06,08,01,00,10.00
2012,06,08,01,01,10.00
2012,06,08,01,02,10.00
2012,06,08,01,03,10.00
2012,06,08,01,04,10.00
2012,06,08,01,05,10.00
2012,06,08,01,06,10.00
2012,06,08,01,07,10.00
2012,06,08,01,08,10.00
2012,06,08,01,09,10.00
2012,06,08,01,10,10.00
2012,06,08,01,11,10.00
2012,06,08,01,12,10.00
2012,06,08,01,13,10.00
2012,06,08,01,14,10.00
2012,06,08,01,15,10.00
2012,06,08,01,16,10.00
2012,06,08,01,17,10.00
2012,06,08,01,18,10.00
2012,06,08,01,19,10.00
2012,06,08,01,20,10.00
2012,06,08,01,21,10.00
2012,06,08,01,22,10.00
2012,06,08,01,23,9.90
2012,06,08,01,24,9.90
2012,06,08,01,25,9.90
2012,06,08,01,26,9.90
2012,06,08,01,27,9.90
2012,06,08,01,28,9.90
2012,06,08,01,29,9.90
2012,06,08,01,30,9.90
2012,06,08,01,31,9.90
2012,06,08,01,32,9.90
2012,06,08,01,33,9.90
2012,06,08,01,34,9.90
2012,06,08,01,35,9.90
2012,06,08,01,36,9.90
2012,06,08,01,37,9.90
2012,06,08,01,38,9.90
2012,06,08,01,39,9.90
2012,06,08,01,40,9.90
2012,06,08,01,41,9.80
2012,06,08,01,42,9.80
2012,06,08,01,43,9.80
2012,06,08,01,44,9.80
2012,06,08,01,45,9.80
2012,06,08,01,46,9.80
2012,06,08,01,47,9.80
2012,06,08,01,48,9.80
2012,06,08,01,49,9.80
2012,06,08,01,50,9.80
2012,06,08,01,51,9.80
2012,06,08,01,52,9.80
2012,06,08,01,53,9.80
2012,06,08,01,54,9.80
2012,06,08,01,55,9.70
2012,06,08,01,56,9.70
2012,06,08,01,57,9.70
2012,06,08,01,58,9.70
2012,06,08,01,59,9.70
2012,06,08,02,00,9.70
2012,06,08,02,01,9.70
2012,06,08,02,02,9.70
2012,06,08,02,03,9.70
2012,06,08,02,04,9.70
2012,06,08,02,05,9.70
2012,06,08,02,06,9.70
2012,06,08,02,07,9.70
2012,06,08,02,08,9.70
2012,06,08,02,09,9.70
2012,06,08,02,10,9.60
2012,06,08,02,11,9.60
2012,06,08,02,12,9.60
2012,06,08,02,13,9.60
2012,06,08,02,14,9.60
2012,06,08,02,15,9.60
2012,06,08,02,16,9.60
2012,06,08,02,17,9.60
2012,06,08,02,18,9.60
2012,06,08,02,19,9.60
2012,06,08,02,20,9.60
2012,06,08,02,21,9.60
2012,06,08,02,22,9.60
2012,06,08,02,23,9.60
2012,06,08,02,24,9.70
2012,06,08,02,25,9.70
2012,06,08,02,26,9.70
2012,06,08,02,27,9.70
2012,06,08,02,28,9.70
2012,06,08,02,29,9.70
2012,06,08,02,30,9.70
2012,06,08,02,31,9.70
2012,06,08,02,32,9.70
2012,06,08,02,33,9.70
2012,06,08,02,34,9.70
2012,06,08,02,35,9.70
2012,06,08,02,36,9.70
2012,06,08,02,37,9.70
2012,06,08,02,38,9.70
2012,06,08,02,39,9.70
2012,06,08,02,40,9.70
2012,06,08,02,41,9.70
2012,06,08,02,42,9.70
2012,06,08,02,43,9.70
2012,06,08,02,44,9.70
2012,06,08,02,45,9.70
2012,06,08,02,46,9.70
2012,06,08,02,47,9.60
2012,06,08,02,48,9.60
2012,06,08,02,49,9.60
2012,06,08,02,50,9.60
2012,06,08,02,51,9.60
2012,06,08,02,52,9.60
2012,06,08,02,53,9.60
2012,06,08,02,54,9.50
2012,06,08,02,55,9.50
2012,06,08,02,56,9.50
2012,06,08,02,57,9.50
2012,06,08,02,58,9.40
2012,06,08,02,59,9.40
2012,06,08,03,00,9.40
2012,06,08,03,01,9.40
2012,06,08,03,02,9.40
2012,06,08,03,03,9.40
2012,06,08,03,04,9.40
2012,06,08,03,05,9.30
2012,06,08,03,06,9.40
2012,06,08,03,07,9.30
2012,06,08,03,08,9.30
2012,06,08,03,09,9.30
2012,06,08,03,10,9.30
2012,06,08,03,11,9.30
2012,06,08,03,12,9.30
2012,06,08,03,13,9.30
2012,06,08,03,14,9.30
2012,06,08,03,15,9.30
2012,06,08,03,16,9.30
2012,06,08,03,17,9.30
2012,06,08,03,18,9.30
2012,06,08,03,19,9.30
2012,06,08,03,20,9.30
2012,06,08,03,21,9.30
2012,06,08,03,22,9.30
2012,06,08,03,23,9.20
2012,06,08,03,24,9.20
2012,06,08,03,25,9.20
2012,06,08,03,26,9.20
2012,06,08,03,27,9.20
2012,06,08,03,28,9.20
2012,06,08,03,29,9.20
2012,06,08,03,30,9.20
2012,06,08,03,31,9.20
2012,06,08,03,32,9.20
2012,06,08,03,33,9.10
2012,06,08,03,34,9.10
2012,06,08,03,35,9.10
2012,06,08,03,36,9.10
2012,06,08,03,37,9.10
2012,06,08,03,38,9.10
2012,06,08,03,39,9.10
2012,06,08,03,40,9.00
2012,06,08,03,41,9.00
2012,06,08,03,42,9.00
2012,06,08,03,43,9.00
2012,06,08,03,44,9.00
2012,06,08,03,45,8.90
2012,06,08,03,46,8.90
2012,06,08,03,47,8.90
2012,06,08,03,48,8.90
2012,06,08,03,49,8.80
2012,06,08,03,50,8.80
2012,06,08,03,51,8.80
2012,06,08,03,52,8.80
2012,06,08,03,53,8.80
2012,06,08,03,54,8.70
2012,06,08,03,55,8.70
2012,06,08,03,56,8.70
2012,06,08,03,57,8.70
2012,06,08,03,58,8.70
2012,06,08,03,59,8.70
2012,06,08,04,00,8.70
2012,06,08,04,01,8.70
2012,06,08,04,02,8.70
2012,06,08,04,03,8.70
2012,06,08,04,04,8.70
2012,06,08,04,05,8.70
2012,06,08,04,06,8.60
2012,06,08,04,07,8.60
2012,06,08,04,08,8.60
2012,06,08,04,09,8.60
2012,06,08,04,10,8.60
2012,06,08,04,11,8.60
2012,06,08,04,12,8.60
2012,06,08,04,13,8.60
2012,06,08,04,14,8.60
2012,06,08,04,15,8.60
2012,06,08,04,16,8.50
2012,06,08,04,17,8.50
2012,06,08,04,18,8.50
2012,06,08,04,19,8.50
2012,06,08,04,20,8.50
2012,06,08,04,21,8.40
2012,06,08,04,22,8.40
2012,06,08,04,23,8.40
2012,06,08,04,24,8.40
2012,06,08,04,25,8.40
2012,06,08,04,26,8.40
2012,06,08,04,27,8.40
2012,06,08,04,28,8.40
2012,06,08,04,29,8.40
2012,06,08,04,30,8.40
2012,06,08,04,31,8.40
2012,06,08,04,32,8.40
2012,06,08,04,33,8.30
2012,06,08,04,34,8.30
2012,06,08,04,35,8.30
2012,06,08,04,36,8.30
2012,06,08,04,37,8.30
2012,06,08,04,38,8.30
2012,06,08,04,39,8.30
2012,06,08,04,40,8.20
2012,06,08,04,41,8.20
2012,06,08,04,42,8.20
2012,06,08,04,43,8.20
2012,06,08,04,44,8.20
2012,06,08,04,45,8.10
2012,06,08,04,46,8.10
2012,06,08,04,47,8.10
2012,06,08,04,48,8.10
2012,06,08,04,49,8.10
2012,06,08,04,50,8.10
2012,06,08,04,51,8.10
2012,06,08,04,52,8.00
2012,06,08,04,53,8.00
2012,06,08,04,54,8.00
2012,06,08,04,55,8.00
2012,06,08,04,56,8.00
2012,06,08,04,57,8.00
2012,06,08,04,58,8.00
2012,06,08,04,59,8.00
2012,06,08,05,00,8.00
2012,06,08,05,01,8.00
2012,06,08,05,02,8.00
2012,06,08,05,03,8.00
2012,06,08,05,04,8.10
2012,06,08,05,05,8.10
2012,06,08,05,06,8.10
2012,06,08,05,07,8.10
2012,06,08,05,08,8.10
2012,06,08,05,09,8.10
2012,06,08,05,10,8.10
2012,06,08,05,11,8.10
2012,06,08,05,12,8.10
2012,06,08,05,13,8.10
2012,06,08,05,14,8.10
2012,06,08,05,15,8.10
2012,06,08,05,16,8.10
2012,06,08,05,17,8.10
2012,06,08,05,18,8.10
2012,06,08,05,19,8.10
2012,06,08,05,20,8.10
2012,06,08,05,21,8.10
2012,06,08,05,22,8.10
2012,06,08,05,23,8.10
2012,06,08,05,24,8.10
2012,06,08,05,25,8.10
2012,06,08,05,26,8.10
2012,06,08,05,27,8.10
2012,06,08,05,28,8.10
2012,06,08,05,29,8.10
2012,06,08,05,30,8.10
2012,06,08,05,31,8.10
2012,06,08,05,32,8.10
2012,06,08,05,33,8.10
2012,06,08,05,34,8.10
2012,06,08,05,35,8.10
2012,06,08,05,36,8.10
2012,06,08,05,37,8.10
2012,06,08,05,38,8.10
2012,06,08,05,39,8.10
2012,06,08,05,40,8.10
2012,06,08,05,41,8.10
2012,06,08,05,42,8.00
2012,06,08,05,43,8.00
2012,06,08,05,44,8.00
2012,06,08,05,45,8.00
2012,06,08,05,46,8.00
2012,06,08,05,47,8.00
2012,06,08,05,48,7.90
2012,06,08,05,49,7.90
2012,06,08,05,50,7.90
2012,06,08,05,51,7.90
2012,06,08,05,52,7.90
2012,06,08,05,53,7.90
2012,06,08,05,54,7.90
2012,06,08,05,55,7.90
2012,06,08,05,56,7.90
2012,06,08,05,57,7.90
2012,06,08,05,58,7.90
2012,06,08,05,59,7.90
2012,06,08,06,00,7.80
2012,06,08,06,01,7.80
2012,06,08,06,02,7.80
2012,06,08,06,03,7.80
2012,06,08,06,04,7.80
2012,06,08,06,05,7.80
2012,06,08,06,06,7.80
2012,06,08,06,07,7.70
2012,06,08,06,08,7.70
2012,06,08,06,09,7.70
2012,06,08,06,10,7.70
2012,06,08,06,11,7.70
2012,06,08,06,12,7.70
2012,06,08,06,13,7.70
2012,06,08,06,14,7.60
2012,06,08,06,15,7.60
2012,06,08,06,16,7.60
2012,06,08,06,17,7.60
2012,06,08,06,18,7.60
2012,06,08,06,19,7.60
2012,06,08,06,20,7.60
2012,06,08,06,21,7.60
2012,06,08,06,22,7.60
2012,06,08,06,23,7.60
2012,06,08,06,24,7.60
2012,06,08,06,25,7.60
2012,06,08,06,26,7.60
2012,06,08,06,27,7.60
2012,06,08,06,28,7.60
2012,06,08,06,29,7.60
2012,06,08,06,30,7.60
2012,06,08,06,31,7.60
2012,06,08,06,32,7.60
2012,06,08,06,33,7.60
2012,06,08,06,34,7.70
2012,06,08,06,35,7.70
2012,06,08,06,36,7.70
2012,06,08,06,37,7.80
2012,06,08,06,38,7.80
2012,06,08,06,39,7.80
2012,06,08,06,40,7.80
2012,06,08,06,41,7.90
2012,06,08,06,42,7.90
2012,06,08,06,43,8.00
2012,06,08,06,44,8.00
2012,06,08,06,45,8.10
2012,06,08,06,46,8.10
2012,06,08,06,47,8.20
2012,06,08,06,48,8.20
2012,06,08,06,49,8.30
2012,06,08,06,50,8.30
2012,06,08,06,51,8.40
2012,06,08,06,52,8.40
2012,06,08,06,53,8.50
2012,06,08,06,54,8.50
2012,06,08,06,55,8.60
2012,06,08,06,56,8.60
2012,06,08,06,57,8.70
2012,06,08,06,58,8.70
2012,06,08,06,59,8.80
2012,06,08,07,00,8.80
2012,06,08,07,01,8.90
2012,06,08,07,02,8.90
2012,06,08,07,03,9.00
2012,06,08,07,04,9.00
2012,06,08,07,05,9.10
2012,06,08,07,06,9.10
2012,06,08,07,07,9.20
2012,06,08,07,08,9.20
2012,06,08,07,09,9.20
2012,06,08,07,10,9.30
2012,06,08,07,11,9.30
2012,06,08,07,12,9.30
2012,06,08,07,13,9.40
2012,06,08,07,14,9.40
2012,06,08,07,15,9.40
2012,06,08,07,16,9.40
2012,06,08,07,17,9.50
2012,06,08,07,18,9.50
2012,06,08,07,19,9.60
2012,06,08,07,20,9.60
2012,06,08,07,21,9.60
2012,06,08,07,22,9.70
2012,06,08,07,23,9.70
2012,06,08,07,24,9.70
2012,06,08,07,25,9.70
2012,06,08,07,26,9.80
2012,06,08,07,27,9.80
2012,06,08,07,28,9.80
2012,06,08,07,29,9.80
2012,06,08,07,30,9.90
2012,06,08,07,31,9.90
2012,06,08,07,32,9.90
2012,06,08,07,33,9.90
2012,06,08,07,34,9.90
2012,06,08,07,35,10.00
2012,06,08,07,36,10.00
2012,06,08,07,37,10.10
2012,06,08,07,38,10.10
2012,06,08,07,39,10.10
2012,06,08,07,40,10.10
2012,06,08,07,41,10.10
2012,06,08,07,42,10.20
2012,06,08,07,43,10.20
2012,06,08,07,44,10.20
2012,06,08,07,45,10.30
2012,06,08,07,46,10.30
2012,06,08,07,47,10.30
2012,06,08,07,48,10.30
2012,06,08,07,49,10.30
2012,06,08,07,50,10.40
2012,06,08,07,51,10.40
2012,06,08,07,52,10.40
2012,06,08,07,53,10.50
2012,06,08,07,54,10.50
2012,06,08,07,55,10.60
2012,06,08,07,56,10.60
2012,06,08,07,57,10.70
2012,06,08,07,58,10.70
2012,06,08,07,59,10.80
2012,06,08,08,00,10.90
2012,06,08,08,01,10.90
2012,06,08,08,02,11.00
2012,06,08,08,03,11.00
2012,06,08,08,04,11.10
2012,06,08,08,05,11.10
2012,06,08,08,06,11.10
2012,06,08,08,07,11.10
2012,06,08,08,08,11.20
2012,06,08,08,09,11.20
2012,06,08,08,10,11.20
2012,06,08,08,11,11.20
2012,06,08,08,12,11.20
2012,06,08,08,13,11.20
2012,06,08,08,14,11.20
2012,06,08,08,15,11.20
2012,06,08,08,16,11.20
2012,06,08,08,17,11.30
2012,06,08,08,18,11.30
2012,06,08,08,19,11.30
2012,06,08,08,20,11.30
2012,06,08,08,21,11.30
2012,06,08,08,22,11.40
2012,06,08,08,23,11.40
2012,06,08,08,24,11.50
2012,06,08,08,25,11.50
2012,06,08,08,26,11.60
2012,06,08,08,27,11.60
2012,06,08,08,28,11.70
2012,06,08,08,29,11.80
2012,06,08,08,30,11.90
2012,06,08,08,31,12.00
2012,06,08,08,32,12.00
2012,06,08,08,33,12.10
2012,06,08,08,34,12.10
2012,06,08,08,35,12.20
2012,06,08,08,36,12.10
2012,06,08,08,37,12.10
2012,06,08,08,38,12.10
2012,06,08,08,39,12.10
2012,06,08,08,40,12.20
2012,06,08,08,41,12.20
2012,06,08,08,42,12.20
2012,06,08,08,43,12.30
2012,06,08,08,44,12.30
2012,06,08,08,45,12.30
2012,06,08,08,46,12.40
2012,06,08,08,47,12.40
2012,06,08,08,48,12.50
2012,06,08,08,49,12.60
2012,06,08,08,50,12.60
2012,06,08,08,51,12.70
2012,06,08,08,52,12.60
2012,06,08,08,53,12.50
2012,06,08,08,54,12.40
2012,06,08,08,55,12.30
2012,06,08,08,56,12.20
2012,06,08,08,57,12.20
2012,06,08,08,58,12.10
2012,06,08,08,59,12.00
2012,06,08,09,00,12.00
2012,06,08,09,01,12.00
2012,06,08,09,02,11.90
2012,06,08,09,03,11.90
2012,06,08,09,04,11.90
2012,06,08,09,05,11.90
2012,06,08,09,06,11.90
2012,06,08,09,07,11.90
2012,06,08,09,08,11.90
2012,06,08,09,09,11.90
2012,06,08,09,10,11.90
2012,06,08,09,11,11.90
2012,06,08,09,12,11.90
2012,06,08,09,13,11.90
2012,06,08,09,14,11.90
2012,06,08,09,15,11.80
2012,06,08,09,16,11.90
2012,06,08,09,17,11.90
2012,06,08,09,18,11.90
2012,06,08,09,19,11.90
2012,06,08,09,20,11.90
2012,06,08,09,21,11.90
2012,06,08,09,22,11.90
2012,06,08,09,23,11.90
2012,06,08,09,24,12.00
2012,06,08,09,25,12.00
2012,06,08,09,26,12.00
2012,06,08,09,27,12.10
2012,06,08,09,28,12.00
2012,06,08,09,29,11.90
2012,06,08,09,30,11.90
2012,06,08,09,31,11.80
2012,06,08,09,32,11.70
2012,06,08,09,33,11.70
2012,06,08,09,34,11.70
2012,06,08,09,35,11.70
2012,06,08,09,36,11.70
2012,06,08,09,37,11.70
2012,06,08,09,38,11.70
2012,06,08,09,39,11.60
2012,06,08,09,40,11.60
2012,06,08,09,41,11.60
2012,06,08,09,42,11.50
2012,06,08,09,43,11.40
2012,06,08,09,44,11.40
2012,06,08,09,45,11.40
2012,06,08,09,46,11.50
2012,06,08,09,47,11.50
2012,06,08,09,48,11.60
2012,06,08,09,49,11.60
2012,06,08,09,50,11.70
2012,06,08,09,51,11.80
2012,06,08,09,52,11.90
2012,06,08,09,53,12.10
2012,06,08,09,54,12.20
2012,06,08,09,55,12.40
2012,06,08,09,56,12.60
2012,06,08,09,57,12.80
2012,06,08,09,58,13.00
2012,06,08,09,59,13.20
2012,06,08,10,00,13.40
2012,06,08,10,01,13.50
2012,06,08,10,02,13.50
2012,06,08,10,03,13.60
2012,06,08,10,04,13.70
2012,06,08,10,05,13.80
2012,06,08,10,06,13.90
2012,06,08,10,07,13.90
2012,06,08,10,08,13.90
2012,06,08,10,09,13.90
2012,06,08,10,10,13.90
2012,06,08,10,11,13.90
2012,06,08,10,12,13.80
2012,06,08,10,13,13.80
2012,06,08,10,14,13.70
2012,06,08,10,15,13.60
2012,06,08,10,16,13.60
2012,06,08,10,17,13.60
2012,06,08,10,18,13.50
2012,06,08,10,19,13.50
2012,06,08,10,20,13.40
2012,06,08,10,21,13.30
2012,06,08,10,22,13.30
2012,06,08,10,23,13.30
2012,06,08,10,24,13.30
2012,06,08,10,25,13.30
2012,06,08,10,26,13.30
2012,06,08,10,27,13.30
2012,06,08,10,28,13.30
2012,06,08,10,29,13.40
2012,06,08,10,30,13.50
2012,06,08,10,31,13.60
2012,06,08,10,32,13.80
2012,06,08,10,33,13.90
2012,06,08,10,34,14.00
2012,06,08,10,35,14.10
2012,06,08,10,36,14.20
2012,06,08,10,37,14.20
2012,06,08,10,38,14.10
2012,06,08,10,39,14.10
2012,06,08,10,40,14.00
2012,06,08,10,41,13.90
2012,06,08,10,42,13.90
2012,06,08,10,43,13.80
2012,06,08,10,44,13.80
2012,06,08,10,45,13.90
2012,06,08,10,46,13.90
2012,06,08,10,47,13.90
2012,06,08,10,48,13.90
2012,06,08,10,49,14.00
2012,06,08,10,50,14.00
2012,06,08,10,51,14.00
2012,06,08,10,52,14.00
2012,06,08,10,53,14.00
2012,06,08,10,54,14.10
2012,06,08,10,55,14.10
2012,06,08,10,56,14.00
2012,06,08,10,57,14.00
2012,06,08,10,58,13.90
2012,06,08,10,59,13.80
2012,06,08,11,00,13.80
2012,06,08,11,01,13.70
2012,06,08,11,02,13.60
2012,06,08,11,03,13.50
2012,06,08,11,04,13.50
2012,06,08,11,05,13.40
2012,06,08,11,06,13.40
2012,06,08,11,07,13.40
2012,06,08,11,08,13.30
2012,06,08,11,09,13.30
2012,06,08,11,10,13.30
2012,06,08,11,11,13.30
2012,06,08,11,12,13.30
2012,06,08,11,13,13.30
2012,06,08,11,14,13.40
2012,06,08,11,15,13.50
2012,06,08,11,16,13.60
2012,06,08,11,17,13.80
2012,06,08,11,18,13.90
2012,06,08,11,19,14.10
2012,06,08,11,20,14.20
2012,06,08,11,21,14.30
2012,06,08,11,22,14.30
2012,06,08,11,23,14.40
2012,06,08,11,24,14.30
2012,06,08,11,25,14.30
2012,06,08,11,26,14.20
2012,06,08,11,27,14.20
2012,06,08,11,28,14.10
2012,06,08,11,29,14.00
2012,06,08,11,30,13.90
2012,06,08,11,31,13.80
2012,06,08,11,32,13.80
2012,06,08,11,33,13.70
2012,06,08,11,34,13.70
2012,06,08,11,35,13.60
2012,06,08,11,36,13.50
2012,06,08,11,37,13.50
2012,06,08,11,38,13.50
2012,06,08,11,39,13.40
2012,06,08,11,40,13.40
2012,06,08,11,41,13.40
2012,06,08,11,42,13.40
2012,06,08,11,43,13.40
2012,06,08,11,44,13.50
2012,06,08,11,45,13.50
2012,06,08,11,46,13.60
2012,06,08,11,47,13.70
2012,06,08,11,48,13.70
2012,06,08,11,49,13.80
2012,06,08,11,50,13.80
2012,06,08,11,51,13.80
2012,06,08,11,52,13.90
2012,06,08,11,53,14.00
2012,06,08,11,54,14.10
2012,06,08,11,55,14.20
2012,06,08,11,56,14.30
2012,06,08,11,57,14.40
2012,06,08,11,58,14.50
2012,06,08,11,59,14.60
2012,06,08,12,00,14.70
2012,06,08,12,01,14.80
2012,06,08,12,02,14.80
2012,06,08,12,03,14.90
2012,06,08,12,04,14.90
2012,06,08,12,05,14.90
2012,06,08,12,06,15.00
2012,06,08,12,07,15.00
2012,06,08,12,08,15.10
2012,06,08,12,09,15.10
2012,06,08,12,10,15.20
2012,06,08,12,11,15.40
2012,06,08,12,12,15.50
2012,06,08,12,13,15.60
2012,06,08,12,14,15.70
2012,06,08,12,15,15.80
2012,06,08,12,16,15.80
2012,06,08,12,17,15.80
2012,06,08,12,18,15.80
2012,06,08,12,19,15.80
2012,06,08,12,20,15.70
2012,06,08,12,21,15.70
2012,06,08,12,22,15.60
2012,06,08,12,23,15.60
2012,06,08,12,24,15.50
2012,06,08,12,25,15.40
2012,06,08,12,26,15.30
2012,06,08,12,27,15.30
2012,06,08,12,28,15.20
2012,06,08,12,29,15.10
2012,06,08,12,30,15.10
2012,06,08,12,31,15.00
2012,06,08,12,32,15.00
2012,06,08,12,33,15.00
2012,06,08,12,34,15.00
2012,06,08,12,35,15.10
2012,06,08,12,36,15.10
2012,06,08,12,37,15.20
2012,06,08,12,38,15.20
2012,06,08,12,39,15.30
2012,06,08,12,40,15.20
2012,06,08,12,41,15.20
2012,06,08,12,42,15.30
2012,06,08,12,43,15.40
2012,06,08,12,44,15.40
2012,06,08,12,45,15.60
2012,06,08,12,46,15.70
2012,06,08,12,47,15.70
2012,06,08,12,48,15.80
2012,06,08,12,49,15.90
2012,06,08,12,50,15.90
2012,06,08,12,51,16.00
2012,06,08,12,52,16.10
2012,06,08,12,53,16.10
2012,06,08,12,54,16.20
2012,06,08,12,55,16.20
2012,06,08,12,56,16.20
2012,06,08,12,57,16.30
2012,06,08,12,58,16.20
2012,06,08,12,59,16.20
2012,06,08,13,00,16.20
2012,06,08,13,01,16.30
2012,06,08,13,02,16.30
2012,06,08,13,03,16.30
2012,06,08,13,04,16.30
2012,06,08,13,05,16.20
2012,06,08,13,06,16.20
2012,06,08,13,07,16.20
2012,06,08,13,08,16.30
2012,06,08,13,09,16.40
2012,06,08,13,10,16.50
2012,06,08,13,11,16.60
2012,06,08,13,12,16.70
2012,06,08,13,13,16.70
2012,06,08,13,14,16.70
2012,06,08,13,15,16.70
2012,06,08,13,16,16.70
2012,06,08,13,17,16.70
2012,06,08,13,18,16.70
2012,06,08,13,19,16.70
2012,06,08,13,20,16.60
2012,06,08,13,21,16.60
2012,06,08,13,22,16.70
2012,06,08,13,23,16.70
2012,06,08,13,24,16.70
2012,06,08,13,25,16.70
2012,06,08,13,26,16.60
2012,06,08,13,27,16.60
2012,06,08,13,28,16.50
2012,06,08,13,29,16.40
2012,06,08,13,30,16.30
2012,06,08,13,31,16.30
2012,06,08,13,32,16.40
2012,06,08,13,33,16.40
2012,06,08,13,34,16.50
2012,06,08,13,35,16.50
2012,06,08,13,36,16.50
2012,06,08,13,37,16.50
2012,06,08,13,38,16.50
2012,06,08,13,39,16.60
2012,06,08,13,40,16.60
2012,06,08,13,41,16.60
2012,06,08,13,42,16.70
2012,06,08,13,43,16.70
2012,06,08,13,44,16.70
2012,06,08,13,45,16.80
2012,06,08,13,46,16.80
2012,06,08,13,47,16.90
2012,06,08,13,48,16.90
2012,06,08,13,49,17.00
2012,06,08,13,50,17.00
2012,06,08,13,51,17.00
2012,06,08,13,52,17.10
2012,06,08,13,53,17.10
2012,06,08,13,54,17.00
2012,06,08,13,55,17.00
2012,06,08,13,56,16.90
2012,06,08,13,57,16.80
2012,06,08,13,58,16.80
2012,06,08,13,59,16.80
2012,06,08,14,00,16.80
2012,06,08,14,01,16.80
2012,06,08,14,02,16.70
2012,06,08,14,03,16.70
2012,06,08,14,04,16.70
2012,06,08,14,05,16.70
2012,06,08,14,06,16.60
2012,06,08,14,07,16.50
2012,06,08,14,08,16.50
2012,06,08,14,09,16.40
2012,06,08,14,10,16.40
2012,06,08,14,11,16.40
2012,06,08,14,12,16.30
2012,06,08,14,13,16.30
2012,06,08,14,14,16.30
2012,06,08,14,15,16.30
2012,06,08,14,16,16.40
2012,06,08,14,17,16.50
2012,06,08,14,18,16.50
2012,06,08,14,19,16.40
2012,06,08,14,20,16.40
2012,06,08,14,21,16.30
2012,06,08,14,22,16.30
2012,06,08,14,23,16.30
2012,06,08,14,24,16.40
2012,06,08,14,25,16.50
2012,06,08,14,26,16.50
2012,06,08,14,27,16.50
2012,06,08,14,28,16.60
2012,06,08,14,29,16.70
2012,06,08,14,30,16.70
2012,06,08,14,31,16.70
2012,06,08,14,32,16.70
2012,06,08,14,33,16.70
2012,06,08,14,34,16.70
2012,06,08,14,35,16.70
2012,06,08,14,36,16.70
2012,06,08,14,37,16.60
2012,06,08,14,38,16.60
2012,06,08,14,39,16.60
2012,06,08,14,40,16.60
2012,06,08,14,41,16.50
2012,06,08,14,42,16.40
2012,06,08,14,43,16.30
2012,06,08,14,44,16.20
2012,06,08,14,45,16.20
2012,06,08,14,46,16.10
2012,06,08,14,47,16.10
2012,06,08,14,48,16.10
2012,06,08,14,49,16.10
2012,06,08,14,50,16.20
2012,06,08,14,51,16.20
2012,06,08,14,52,16.30
2012,06,08,14,53,16.30
2012,06,08,14,54,16.30
2012,06,08,14,55,16.30
2012,06,08,14,56,16.40
2012,06,08,14,57,16.40
2012,06,08,14,58,16.40
2012,06,08,14,59,16.40
2012,06,08,15,00,16.40
2012,06,08,15,01,16.40
2012,06,08,15,02,16.30
2012,06,08,15,03,16.10
2012,06,08,15,04,16.10
2012,06,08,15,05,16.10
2012,06,08,15,06,16.10
2012,06,08,15,07,16.10
2012,06,08,15,08,16.10
2012,06,08,15,09,16.00
2012,06,08,15,10,16.00
2012,06,08,15,11,16.10
2012,06,08,15,12,16.10
2012,06,08,15,13,16.10
2012,06,08,15,14,16.20
2012,06,08,15,15,16.30
2012,06,08,15,16,16.40
2012,06,08,15,17,16.50
2012,06,08,15,18,16.60
2012,06,08,15,19,16.60
2012,06,08,15,20,16.50
2012,06,08,15,21,16.40
2012,06,08,15,22,16.40
2012,06,08,15,23,16.40
2012,06,08,15,24,16.40
2012,06,08,15,25,16.40
2012,06,08,15,26,16.30
2012,06,08,15,27,16.40
2012,06,08,15,28,16.40
2012,06,08,15,29,16.40
2012,06,08,15,30,16.40
2012,06,08,15,31,16.40
2012,06,08,15,32,16.30
2012,06,08,15,33,16.10
2012,06,08,15,34,15.90
2012,06,08,15,35,15.80
2012,06,08,15,36,15.60
2012,06,08,15,37,15.60
2012,06,08,15,38,15.60
2012,06,08,15,39,15.70
2012,06,08,15,40,15.80
2012,06,08,15,41,16.00
2012,06,08,15,42,16.10
2012,06,08,15,43,16.20
2012,06,08,15,44,16.30
2012,06,08,15,45,16.30
2012,06,08,15,46,16.30
2012,06,08,15,47,16.30
2012,06,08,15,48,16.30
2012,06,08,15,49,16.30
2012,06,08,15,50,16.30
2012,06,08,15,51,16.30
2012,06,08,15,52,16.30
2012,06,08,15,53,16.30
2012,06,08,15,54,16.40
2012,06,08,15,55,16.50
2012,06,08,15,56,16.50
2012,06,08,15,57,16.60
2012,06,08,15,58,16.70
2012,06,08,15,59,16.70
2012,06,08,16,00,16.80
2012,06,08,16,01,16.80
2012,06,08,16,02,16.80
2012,06,08,16,03,16.80
2012,06,08,16,04,16.80
2012,06,08,16,05,16.80
2012,06,08,16,06,16.70
2012,06,08,16,07,16.70
2012,06,08,16,08,16.70
2012,06,08,16,09,16.70
2012,06,08,16,10,16.70
2012,06,08,16,11,16.70
2012,06,08,16,12,16.80
2012,06,08,16,13,16.70
2012,06,08,16,14,16.70
2012,06,08,16,15,16.60
2012,06,08,16,16,16.40
2012,06,08,16,17,16.30
2012,06,08,16,18,16.30
2012,06,08,16,19,16.20
2012,06,08,16,20,16.20
2012,06,08,16,21,16.20
2012,06,08,16,22,16.20
2012,06,08,16,23,16.30
2012,06,08,16,24,16.40
2012,06,08,16,25,16.50
2012,06,08,16,26,16.50
2012,06,08,16,27,16.50
2012,06,08,16,28,16.50
2012,06,08,16,29,16.60
2012,06,08,16,30,16.60
2012,06,08,16,31,16.60
2012,06,08,16,32,16.60
2012,06,08,16,33,16.50
2012,06,08,16,34,16.50
2012,06,08,16,35,16.50
2012,06,08,16,36,16.60
2012,06,08,16,37,16.60
2012,06,08,16,38,16.70
2012,06,08,16,39,16.60
2012,06,08,16,40,16.40
2012,06,08,16,41,16.20
2012,06,08,16,42,16.10
2012,06,08,16,43,16.10
2012,06,08,16,44,16.00
2012,06,08,16,45,16.00
2012,06,08,16,46,15.90
2012,06,08,16,47,15.90
2012,06,08,16,48,15.90
2012,06,08,16,49,15.90
2012,06,08,16,50,16.00
2012,06,08,16,51,15.90
2012,06,08,16,52,15.90
2012,06,08,16,53,15.90
2012,06,08,16,54,15.80
2012,06,08,16,55,15.90
2012,06,08,16,56,15.90
2012,06,08,16,57,15.90
2012,06,08,16,58,15.90
2012,06,08,16,59,15.90
2012,06,08,17,00,15.90
2012,06,08,17,01,15.80
2012,06,08,17,02,15.70
2012,06,08,17,03,15.60
2012,06,08,17,04,15.60
2012,06,08,17,05,15.60
2012,06,08,17,06,15.70
2012,06,08,17,07,15.70
2012,06,08,17,08,15.70
2012,06,08,17,09,15.70
2012,06,08,17,10,15.70
2012,06,08,17,11,15.70
2012,06,08,17,12,15.70
2012,06,08,17,13,15.70
2012,06,08,17,14,15.70
2012,06,08,17,15,15.70
2012,06,08,17,16,15.70
2012,06,08,17,17,15.70
2012,06,08,17,18,15.80
2012,06,08,17,19,15.80
2012,06,08,17,20,15.90
2012,06,08,17,21,15.90
2012,06,08,17,22,15.90
2012,06,08,17,23,15.90
2012,06,08,17,24,15.90
2012,06,08,17,25,15.90
2012,06,08,17,26,15.90
2012,06,08,17,27,15.90
2012,06,08,17,28,15.90
2012,06,08,17,29,16.00
2012,06,08,17,30,15.90
2012,06,08,17,31,15.90
2012,06,08,17,32,15.90
2012,06,08,17,33,15.90
2012,06,08,17,34,15.90
2012,06,08,17,35,16.00
2012,06,08,17,36,16.00